Date String (YYYY-MM-DD hh:mm:ss) UTC,Instrument flags,Ambient pressure (hPa),Sample flow (lpm),Bypass flow (lpm),Sample temperature (°C),Ambient temperature (°C),ASC tube jacket temperature (°C),LED temperature (°C),Box temperature (°C),Sample RH (%),Span deviation,Mass concentration (μg/m³),Mass concentration (μg/m³),Mass concentration (μg/m³)
DateTimeUTC,F1_M11,P_M11,Q1_M11,Q2_M11,T1_M11,T2_M11,T3_M11,T4_M11,T5_M11,U1_M11,ZSPAN_M11,X0_M11,X2_M11,X1_M11
2022-04-12 14:00:00,,0804.2,4.99,0.00,24.9,24.1,00.0,33.8,26.8,11.6,0000.0,0010.52,0002.65,0000.76
2022-04-12 14:01:00,,0804.2,5.01,0.00,24.9,24.1,00.0,33.8,26.8,11.7,0000.0,0010.55,0002.64,0000.73
2022-04-12 14:02:00,,0804.1,5.00,0.00,24.9,24.1,00.0,33.8,26.8,11.4,0000.0,0010.31,0002.51,0000.70
2022-04-12 14:03:00,,0804.1,4.99,0.00,24.9,24.1,00.0,33.8,26.8,11.4,0000.0,0010.60,0002.42,0000.67
2022-04-12 14:04:00,,0804.1,5.00,0.00,25.0,24.1,00.0,33.8,26.8,11.4,0000.0,0010.43,0002.34,0000.63
2022-04-12 14:05:00,,0804.1,5.01,0.00,25.0,24.1,00.0,33.8,26.8,10.8,0000.0,0009.40,0002.29,0000.59
2022-04-12 14:06:00,,0804.2,4.99,0.00,25.0,24.2,00.0,33.8,26.8,10.9,0000.0,0008.94,0002.21,0000.56
2022-04-12 14:07:00,,0804.1,5.00,0.00,25.0,24.2,00.0,33.9,26.8,10.7,0000.0,0008.77,0002.06,0000.51
2022-04-12 14:08:00,,0804.0,5.01,0.00,25.0,24.1,00.0,33.9,26.8,09.9,0000.0,0008.81,0001.85,0000.46
2022-04-12 14:09:00,,0804.0,4.99,0.00,25.0,24.1,00.0,33.9,26.9,09.6,0000.0,0009.23,0001.64,0000.41
2022-04-12 14:10:00,,0803.9,5.01,0.00,25.0,24.0,00.0,33.9,26.8,09.4,0000.0,0009.00,0001.51,0000.37
2022-04-12 14:11:00,,0803.8,4.99,0.00,25.0,24.0,00.0,33.9,26.8,09.4,0000.0,0008.41,0001.30,0000.31
2022-04-12 14:12:00,,0803.8,5.00,0.00,25.0,23.9,00.0,33.9,26.7,09.4,0000.0,0007.73,0001.11,0000.27
2022-04-12 14:13:00,,0803.7,5.00,0.00,25.0,23.8,00.0,33.9,26.7,09.4,0000.0,0007.52,0000.97,0000.24
2022-04-12 14:14:00,,0803.7,5.01,0.00,25.0,23.8,00.0,33.9,26.7,09.6,0000.0,0005.64,0000.82,0000.20
2022-04-12 14:15:00,,0803.7,4.99,0.00,24.9,23.7,00.0,33.9,26.7,09.8,0000.0,0005.15,0000.71,0000.17
2022-04-12 14:16:00,,0803.7,5.02,0.00,24.9,23.8,00.0,33.9,26.7,09.7,0000.0,0004.12,0000.65,0000.15
2022-04-12 14:17:00,,0803.8,4.99,0.00,24.9,23.8,00.0,33.9,26.7,09.4,0000.0,0004.41,0000.63,0000.14
2022-04-12 14:18:00,,0803.8,5.02,0.00,24.9,23.8,00.0,33.9,26.7,09.3,0000.0,0004.24,0000.55,0000.12
2022-04-12 14:19:00,,0803.8,4.99,0.00,24.9,23.8,00.0,33.9,26.6,09.4,0000.0,0003.85,0000.56,0000.12
2022-04-12 14:20:00,,0803.8,5.01,0.00,24.9,23.7,00.0,33.9,26.6,09.4,0000.0,0002.48,0000.59,0000.13
2022-04-12 14:21:00,,0803.8,5.00,0.00,24.9,23.7,00.0,33.9,26.6,09.4,0000.0,0002.83,0000.62,0000.14
2022-04-12 14:22:00,,0803.9,5.00,0.00,24.9,23.7,00.0,33.9,26.6,09.3,0000.0,0002.83,0000.61,0000.14
2022-04-12 14:23:00,,0804.0,4.97,0.00,24.9,23.7,00.0,33.9,26.6,09.2,0000.0,0002.87,0000.59,0000.15
2022-04-12 14:24:00,,0804.1,5.01,0.00,24.8,23.7,00.0,33.9,26.6,09.2,0000.0,0003.12,0000.65,0000.15
2022-04-12 14:25:00,,0804.2,4.99,0.00,24.8,23.7,00.0,33.9,26.6,09.2,0000.0,0003.85,0000.66,0000.15
2022-04-12 14:26:00,,0804.2,5.02,0.00,24.8,23.6,00.0,33.9,26.5,09.0,0000.0,0004.40,0000.63,0000.14
2022-04-12 14:27:00,,0804.3,5.00,0.00,24.7,23.6,00.0,33.8,26.5,09.0,0000.0,0004.00,0000.67,0000.15
2022-04-12 14:28:00,,0804.3,4.99,0.00,24.7,23.6,00.0,33.8,26.5,09.1,0000.0,0003.52,0000.67,0000.15
2022-04-12 14:29:00,,0804.4,5.01,0.00,24.7,23.6,00.0,33.8,26.4,09.5,0000.0,0003.60,0000.69,0000.15
2022-04-12 14:30:00,,0804.5,4.99,0.00,24.7,23.6,00.0,33.8,26.4,09.6,0000.0,0003.86,0000.70,0000.15
2022-04-12 14:31:00,,0804.6,5.01,0.00,24.7,23.6,00.0,33.8,26.4,09.7,0000.0,0003.91,0000.68,0000.14
2022-04-12 14:32:00,,0804.7,4.99,0.00,24.6,23.6,00.0,33.8,26.3,09.2,0000.0,0003.65,0000.66,0000.14
2022-04-12 14:33:00,,0804.6,5.01,0.00,24.6,23.6,00.0,33.8,26.3,09.0,0000.0,0003.79,0000.71,0000.14
2022-04-12 14:34:00,,0804.6,4.98,0.00,24.6,23.6,00.0,33.7,26.3,09.0,0000.0,0003.95,0000.74,0000.14
2022-04-12 14:35:00,,0804.7,5.01,0.00,24.6,23.6,00.0,33.7,26.3,09.0,0000.0,0003.88,0000.74,0000.14
2022-04-12 14:36:00,,0804.7,4.98,0.00,24.6,23.5,00.0,33.7,26.4,09.3,0000.0,0003.20,0000.79,0000.15
2022-04-12 14:37:00,,0804.7,5.01,0.00,24.6,23.5,00.0,33.7,26.3,09.1,0000.0,0002.83,0000.84,0000.16
2022-04-12 14:38:00,,0804.7,4.99,0.00,24.6,23.5,00.0,33.7,26.4,08.6,0000.0,0002.64,0000.77,0000.15
2022-04-12 14:39:00,,0804.7,5.00,0.00,24.6,23.5,00.0,33.7,26.3,08.4,0000.0,0002.92,0000.84,0000.15
2022-04-12 14:40:00,,0804.7,5.01,0.00,24.5,23.4,00.0,33.7,26.2,08.5,0000.0,0002.96,0000.87,0000.16
2022-04-12 14:41:00,,0804.7,4.99,0.00,24.5,23.4,00.0,33.6,26.2,08.5,0000.0,0002.66,0000.84,0000.16
2022-04-12 14:42:00,,0804.7,5.00,0.00,24.5,23.3,00.0,33.6,26.2,08.3,0000.0,0002.57,0000.87,0000.17
2022-04-12 14:43:00,,0804.7,4.99,0.00,24.5,23.3,00.0,33.6,26.2,08.4,0000.0,0002.73,0000.87,0000.17
2022-04-12 14:44:00,,0804.7,5.01,0.00,24.5,23.3,00.0,33.6,26.2,08.4,0000.0,0002.57,0000.82,0000.17
2022-04-12 14:45:00,,0804.7,5.00,0.00,24.5,23.3,00.0,33.6,26.3,08.2,0000.0,0002.40,0000.80,0000.16
2022-04-12 14:46:00,,0804.6,4.99,0.00,24.5,23.3,00.0,33.6,26.3,08.4,0000.0,0002.48,0000.79,0000.16
2022-04-12 14:47:00,,0804.6,5.00,0.00,24.4,23.2,00.0,33.5,26.2,08.3,0000.0,0002.63,0000.73,0000.16
2022-04-12 14:48:00,,0804.6,5.01,0.00,24.4,23.2,00.0,33.5,26.2,08.3,0000.0,0003.33,0000.68,0000.16
2022-04-12 14:49:00,,0804.6,4.99,0.00,24.4,23.2,00.0,33.5,26.2,08.6,0000.0,0003.27,0000.69,0000.17
2022-04-12 14:50:00,,0804.6,5.00,0.00,24.4,23.1,00.0,33.5,26.1,08.5,0000.0,0002.91,0000.59,0000.17
2022-04-12 14:51:00,,0804.6,5.01,0.00,24.4,23.1,00.0,33.5,26.1,08.3,0000.0,0002.86,0000.59,0000.17
2022-04-12 14:52:00,,0804.6,4.99,0.00,24.4,23.1,00.0,33.5,26.1,08.3,0000.0,0002.91,0000.61,0000.17
2022-04-12 14:53:00,,0804.6,4.99,0.00,24.4,23.1,00.0,33.5,26.1,08.3,0000.0,0002.79,0000.61,0000.17
2022-04-12 14:54:00,,0804.6,5.01,0.00,24.4,23.1,00.0,33.4,26.1,08.2,0000.0,0002.71,0000.62,0000.17
2022-04-12 14:55:00,,0804.7,4.99,0.00,24.3,23.1,00.0,33.4,26.1,08.1,0000.0,0003.47,0000.67,0000.18
2022-04-12 14:56:00,,0804.7,5.01,0.00,24.3,23.1,00.0,33.4,26.1,08.2,0000.0,0004.15,0000.64,0000.18
2022-04-12 14:57:00,,0804.7,5.00,0.00,24.3,23.1,00.0,33.4,26.0,08.1,0000.0,0003.99,0000.62,0000.18
2022-04-12 14:58:00,,0804.7,5.01,0.00,24.3,23.2,00.0,33.4,26.0,08.0,0000.0,0003.73,0000.66,0000.18
2022-04-12 14:59:00,,0804.8,4.99,0.00,24.3,23.2,00.0,33.4,26.0,08.0,0000.0,0003.08,0000.69,0000.18
